Weather History for Winter Haven, FL

Change the Weather History Date:

Monday, October 10, 2011

  Actual Average Record
Temperature  
Mean Temperature 76 °F -  
Max Temperature 84 °F 86 °F 93 °F (1983)
Min Temperature 69 °F 68 °F 50 °F (2000)
Cooling Degree Days 10    
Growing Degree Days 26 (Base 50)    
Moisture  
Dew Point 68 °F    
Average Humidity 83    
Maximum Humidity 96    
Minimum Humidity 62    
Precipitation  
Precipitation 0.06 in - - ()
Sea Level Pressure  
Sea Level Pressure 29.81 in    
Wind  
Wind Speed 7 mph (SW)    
Max Wind Speed 10 mph    
Max Gust Speed -    
Visibility 9 miles    
Events Rain    
Averages and records for this station are not official NWS values.
T = Trace of Precipitation, MM = Missing Value Source: NWS Daily Summary

Daily Weather History Graph

Daily Weather History Graph

Search for Another Location

Airport:

Trip Planner

Search our weather history database for the weather conditions in past years. The results will help you decide how hot, cold, wet, or windy it might be!

Date:

Astronomy

Oct. 10, 2011 Rise Set
Actual Time 7:24 AM EDT 7:03 PM EDT
Civil Twilight 7:00 AM EDT 7:26 PM EDT
Nautical Twilight 6:33 AM EDT 7:53 PM EDT
Astronomical Twilight 6:06 AM EDT 8:21 PM EDT
Moon 6:06 PM EDT (10/10) 6:07 AM EDT (10/10)
Length of Visible Light 12h 25m
Length of Day
11h 38m
Waxing Gibbous, 98% of the Moon is Illuminated
Oct 10
Waxing Gibbous
Oct 11
Full
Oct 19
Last Quarter
Oct 26
New
Nov 2
First Quarter

Hourly Weather History & Observations

Time (EDT) Temp. Heat Index Dew Point Humidity Pressure Visibility Wind Dir Wind Speed Gust Speed Precip Events Conditions
12:09 AM 69.8 °F - 68.0 °F 94% 29.81 in 3.0 mi North 8.1 mph - 0.03 in Rain Heavy Rain
12:22 AM 69.8 °F - 66.2 °F 88% 29.80 in 6.0 mi NW 8.1 mph - 0.04 in Rain Light Rain
12:53 AM 70.0 °F - 66.9 °F 90% 29.78 in 10.0 mi WNW 8.1 mph - 0.06 in   Overcast
1:31 AM 69.8 °F - 66.2 °F 88% 29.78 in 7.0 mi West 10.4 mph - N/A   Overcast
1:53 AM 69.1 °F - 66.9 °F 93% 29.77 in 7.0 mi West 8.1 mph - N/A   Overcast
2:53 AM 69.1 °F - 68.0 °F 96% 29.74 in 10.0 mi SW 6.9 mph - N/A   Overcast
3:45 AM 69.8 °F - 66.2 °F 88% 29.76 in 5.0 mi WSW 8.1 mph - N/A   Overcast
3:53 AM 69.1 °F - 66.9 °F 93% 29.76 in 3.0 mi WSW 9.2 mph - N/A   Overcast
4:38 AM 69.8 °F - 68.0 °F 94% 29.79 in 3.0 mi WSW 8.1 mph - N/A   Overcast
4:53 AM 69.1 °F - 68.0 °F 96% 29.78 in 5.0 mi SW 8.1 mph - N/A   Overcast
5:22 AM 69.8 °F - 68.0 °F 94% 29.80 in 10.0 mi WSW 6.9 mph - N/A   Overcast
5:53 AM 69.1 °F - 66.9 °F 93% 29.79 in 10.0 mi SW 5.8 mph - N/A   Overcast
6:53 AM 69.1 °F - 66.9 °F 93% 29.82 in 10.0 mi WSW 6.9 mph - N/A   Overcast
7:17 AM 69.8 °F - 66.2 °F 88% 29.83 in 10.0 mi WSW 5.8 mph - N/A   Overcast
7:53 AM 69.1 °F - 66.9 °F 93% 29.83 in 10.0 mi West 8.1 mph - N/A   Overcast
8:17 AM 69.8 °F - 66.2 °F 88% 29.84 in 10.0 mi Calm Calm - N/A   Overcast
9:12 AM 71.6 °F - 68.0 °F 88% 29.85 in 10.0 mi South 4.6 mph - N/A   Scattered Clouds
9:31 AM 71.6 °F - 68.0 °F 88% 29.85 in 10.0 mi SSE 5.8 mph - N/A   Mostly Cloudy
9:53 AM 73.0 °F - 68.0 °F 84% 29.84 in 10.0 mi South 5.8 mph - N/A   Scattered Clouds
11:53 AM 80.1 °F 82.7 °F 68.0 °F 67% 29.85 in 10.0 mi South 8.1 mph - N/A   Scattered Clouds
12:18 PM 80.6 °F 83.2 °F 68.0 °F 65% 29.85 in 10.0 mi South 6.9 mph - N/A   Mostly Cloudy
12:53 PM 79.0 °F - 66.9 °F 66% 29.84 in 10.0 mi SW 3.5 mph - N/A   Mostly Cloudy
1:20 PM 80.6 °F 83.2 °F 68.0 °F 65% 29.84 in 10.0 mi South 4.6 mph - N/A   Overcast
2:53 PM 82.0 °F 84.9 °F 68.0 °F 62% 29.79 in 10.0 mi South 4.6 mph - N/A   Mostly Cloudy
3:53 PM 82.9 °F 86.5 °F 69.1 °F 63% 29.78 in 10.0 mi SSW 3.5 mph - N/A   Mostly Cloudy
4:53 PM 82.9 °F 86.5 °F 69.1 °F 63% 29.77 in 10.0 mi Variable 4.6 mph - N/A   Mostly Cloudy
5:53 PM 81.0 °F 84.1 °F 69.1 °F 67% 29.77 in 10.0 mi SW 3.5 mph - N/A   Overcast
6:53 PM 80.1 °F 83.2 °F 70.0 °F 71% 29.78 in 10.0 mi South 3.5 mph - N/A   Overcast
8:53 PM 78.1 °F - 71.1 °F 79% 29.80 in 10.0 mi Calm Calm - N/A   Mostly Cloudy
9:53 PM 77.0 °F - 71.1 °F 82% 29.83 in 10.0 mi South 4.6 mph - N/A   Overcast
10:53 PM 75.0 °F - 71.1 °F 87% 29.83 in 10.0 mi South 5.8 mph - N/A   Clear
11:53 PM 73.9 °F - 71.1 °F 91% 29.82 in 10.0 mi SSE 3.5 mph - N/A   Clear